IR4UCA-3 Weather Reports


time (UTC)temp
F
wind
direction
speed
knots
gust
knots
rain 1hr
in
rain 24hr
in
rain mn
in
humidity
%
barometer
mb
20260506185548 65 110 4.3 10.4 0.00 0.90 0.90 54 1008.9
20260506185346 65 204 3.5 10.4 0.00 0.90 0.90 54 1008.8
20260506185147 65 193 3.5 10.4 0.00 0.90 0.90 54 1008.8
20260506184949 65 223 4.3 10.4 0.00 0.90 0.90 55 1008.9
20260506184747 65 158 5.2 10.4 0.00 0.90 0.90 56 1008.8
20260506184550 65 233 6.1 10.4 0.00 0.90 0.90 56 1008.9
20260506184344 65 216 6.1 10.4 0.00 0.90 0.90 56 1008.8
20260506184142 65 162 6.1 10.4 0.00 0.90 0.90 56 1008.8
20260506183941 65 157 7.0 10.4 0.00 0.90 0.90 56 1008.8
20260506183742 65 233 5.2 10.4 0.00 0.90 0.90 57 1008.7
20260506183539 66 227 5.2 10.4 0.00 0.90 0.90 57 1008.7
20260506183339 66 213 5.2 10.4 0.00 0.90 0.90 57 1008.7
20260506183139 66 175 5.2 10.4 0.00 0.90 0.90 57 1008.7
20260506182939 66 189 3.5 7.8 0.00 0.90 0.90 57 1008.7
20260506182738 66 148 3.5 7.8 0.00 0.90 0.90 57 1008.6
20260506182543 66 158 3.5 7.8 0.00 0.90 0.90 57 1008.6
20260506182345 66 189 3.5 7.8 0.00 0.90 0.90 58 1008.6
20260506182139 66 175 2.6 6.1 0.00 0.90 0.90 57 1008.6
20260506181938 66 137 1.7 10.4 0.00 0.90 0.90 57 1008.6
20260506181738 66 165 3.5 10.4 0.00 0.90 0.90 57 1008.6
20260506181537 66 176 3.5 10.4 0.00 0.90 0.90 57 1008.6
20260506181338 66 209 2.6 10.4 0.00 0.90 0.90 58 1008.5
20260506181135 67 171 4.3 10.4 0.00 0.90 0.90 58 1008.4
20260506180934 67 230 4.3 8.7 0.00 0.90 0.90 58 1008.4
20260506180731 67 219 3.5 5.2 0.00 0.90 0.90 58 1008.4
20260506180529 67 193 2.6 5.2 0.00 0.90 0.90 59 1008.4
20260506180332 67 233 2.6 6.1 0.00 0.90 0.90 59 1008.5
20260506180130 67 213 1.7 6.1 0.00 0.90 0.90 59 1008.4
20260506175930 67 164 2.6 6.1 0.00 0.90 0.90 59 1008.5
20260506175729 67 188 1.7 7.8 0.00 0.90 0.90 59 1008.4
20260506175530 67 155 1.7 7.8 0.00 0.90 0.90 59 1008.4
20260506175329 67 165 1.7 7.8 0.00 0.90 0.90 60 1008.4
20260506175132 67 147 1.7 7.8 0.00 0.90 0.90 60 1008.3
20260506174929 67 142 3.5 7.8 0.00 0.90 0.90 60 1008.4
20260506174729 67 202 1.7 5.2 0.00 0.90 0.90 59 1008.4
20260506174529 67 196 1.7 5.2 0.00 0.90 0.90 59 1008.4
20260506174329 67 185 1.7 5.2 0.00 0.90 0.90 60 1008.4
20260506174125 67 202 2.6 8.7 0.00 0.90 0.90 60 1008.3
20260506174001 67 186 3.5 8.7 0.00 0.90 0.90 60 1008.3
20260506173900 67 193 2.6 8.7 0.00 0.90 0.90 61 1008.3
20260506173753 67 195 1.7 8.7 0.00 0.90 0.90 60 1008.2
20260506164716 68 169 1.7 9.6 0.00 0.90 0.90 68 1008.0
20260506164519 68 110 2.6 9.6 0.00 0.90 0.90 67 1008.0
20260506164303 68 197 2.6 9.6 0.00 0.90 0.90 67 1007.9
20260506164107 68 213 3.5 9.6 0.00 0.90 0.90 66 1007.9
20260506163903 68 145 4.3 9.6 0.00 0.90 0.90 67 1007.9
20260506163705 68 192 2.6 6.1 0.00 0.90 0.90 69 1007.9
20260506163501 68 224 2.6 9.6 0.00 0.90 0.90 68 1007.9
20260506163302 68 207 4.3 9.6 0.00 0.90 0.90 68 1007.9
20260506163102 68 206 3.5 9.6 0.00 0.90 0.90 66 1007.9
20260506162901 68 185 4.3 9.6 0.00 0.90 0.90 66 1007.9
20260506162701 68 189 4.3 9.6 0.00 0.90 0.90 65 1007.8
20260506162511 68 179 4.3 8.7 0.00 0.90 0.90 66 1007.9
20260506162301 68 186 4.3 8.7 0.00 0.90 0.90 67 1007.9
20260506162104 68 197 4.3 7.8 0.00 0.90 0.90 67 1007.8
20260506161900 68 227 3.5 7.8 0.00 0.90 0.90 67 1007.9
20260506161706 68 204 3.5 6.1 0.00 0.90 0.90 67 1007.9
20260506161500 68 193 3.5 6.1 0.00 0.90 0.90 67 1007.9
20260506161306 68 227 3.5 6.1 0.00 0.90 0.90 67 1007.9
20260506161046 68 206 2.6 6.1 0.00 0.90 0.90 66 1007.9
20260506160846 68 199 3.5 6.1 0.00 0.90 0.90 66 1007.9
20260506160647 68 192 4.3 6.1 0.00 0.90 0.90 66 1007.8
20260506160443 68 213 3.5 7.8 0.00 0.90 0.90 66 1007.9
20260506160246 68 199 3.5 7.8 0.00 0.90 0.90 67 1007.8
20260506160044 68 224 3.5 7.8 0.00 0.90 0.90 67 1007.8
20260506155840 68 190 3.5 7.8 0.00 0.90 0.90 67 1007.9
20260506155640 68 210 3.5 7.8 0.00 0.90 0.90 67 1007.8
20260506155437 68 203 2.6 9.6 0.00 0.90 0.90 68 1007.8
20260506155236 68 202 2.6 9.6 0.00 0.90 0.90 68 1007.7
20260506155033 68 186 2.6 9.6 0.00 0.90 0.90 69 1007.6
20260506154833 68 216 3.5 9.6 0.00 0.90 0.90 69 1007.7
20260506154632 68 190 4.3 9.6 0.00 0.90 0.90 69 1007.7
20260506154433 68 214 5.2 9.6 0.00 0.90 0.90 69 1007.7
20260506154235 68 183 3.5 8.7 0.00 0.90 0.90 69 1007.6
20260506154036 68 203 3.5 8.7 0.00 0.90 0.90 69 1007.6
20260506153831 67 197 3.5 8.7 0.00 0.90 0.90 70 1007.7
20260506153630 67 182 3.5 8.7 0.00 0.90 0.90 70 1007.7
20260506153430 67 244 3.5 8.7 0.00 0.90 0.90 70 1007.6
20260506153223 67 131 2.6 6.1 0.00 0.90 0.90 71 1007.7
20260506153022 67 221 3.5 6.1 0.00 0.90 0.90 71 1007.7
20260506152819 67 199 3.5 5.2 0.00 0.90 0.90 72 1007.8
20260506152616 67 186 3.5 5.2 0.00 0.90 0.90 72 1007.8
20260506152418 67 195 3.5 5.2 0.00 0.90 0.90 72 1007.8
20260506152214 67 195 1.7 5.2 0.00 0.90 0.90 73 1007.8
20260506152020 67 193 1.7 5.2 0.00 0.90 0.90 72 1007.9
20260506151813 67 190 1.7 5.2 0.00 0.90 0.90 72 1007.9
20260506151613 67 182 1.7 5.2 0.00 0.90 0.90 72 1007.9
20260506151414 67 179 3.5 5.2 0.00 0.90 0.90 72 1007.9
20260506151210 67 212 1.7 5.2 0.00 0.90 0.90 73 1008.0
20260506151023 67 207 1.7 5.2 0.00 0.90 0.90 73 1008.1
20260506150815 67 192 1.7 3.5 0.00 0.90 0.90 73 1007.9
20260506150610 67 138 0.9 3.5 0.00 0.90 0.90 73 1007.9
20260506150411 67 131 0.9 4.3 0.00 0.90 0.90 73 1007.9
20260506150211 67 141 2.6 4.3 0.00 0.90 0.90 73 1007.9
20260506150030 67 204 0.9 5.2 0.00 0.90 0.90 74 1007.8
20260506145810 67 157 0.9 7.8 0.00 0.90 0.90 74 1007.8
20260506145603 67 154 2.6 7.8 0.00 0.90 0.90 74 1007.6
20260506145407 67 159 1.7 7.8 0.00 0.90 0.90 75 1007.8
20260506145205 67 168 3.5 11.3 0.00 0.90 0.90 74 1007.7
20260506145014 67 135 1.7 11.3 0.00 0.90 0.90 74 1007.7
20260506144808 67 114 2.6 11.3 0.00 0.90 0.90 74 1007.9
20260506144605 67 157 1.7 11.3 0.00 0.90 0.90 74 1008.0
20260506144410 67 203 4.3 11.3 0.00 0.90 0.90 74 1007.9
20260506144208 67 195 1.7 3.5 0.00 0.90 0.90 74 1008.0
20260506144006 67 204 1.7 4.3 0.00 0.90 0.90 74 1008.0
20260506143806 67 182 0.9 4.3 0.00 0.90 0.90 74 1008.0
20260506143602 67 162 1.7 6.1 0.00 0.90 0.90 74 1008.0
20260506143401 67 189 0.9 8.7 0.00 0.90 0.90 74 1008.0
20260506143203 67 188 2.6 12.2 0.00 0.90 0.90 74 1008.0
20260506143015 67 142 1.7 12.2 0.00 0.90 0.90 74 1007.9
20260506142805 67 203 3.5 12.2 0.00 0.90 0.90 74 1007.9
20260506142601 67 202 3.5 12.2 0.00 0.90 0.90 74 1007.8
20260506142401 67 142 5.2 12.2 0.00 0.90 0.90 73 1007.9
20260506142210 67 151 4.3 10.4 0.00 0.90 0.90 74 1007.9
20260506142014 67 213 4.3 10.4 0.00 0.90 0.90 74 1007.9
20260506141800 67 192 5.2 10.4 0.00 0.90 0.90 75 1007.7
20260506141600 67 226 3.5 9.6 0.00 0.90 0.90 76 1007.8
20260506141359 67 195 3.5 9.6 0.00 0.90 0.90 75 1007.8
20260506141206 67 155 4.3 8.7 0.00 0.90 0.90 75 1007.8
20260506140959 67 199 5.2 10.4 0.00 0.90 0.90 76 1007.9
20260506140801 67 175 3.5 10.4 0.00 0.90 0.90 76 1007.9
20260506140558 67 209 3.5 10.4 0.00 0.90 0.90 75 1007.9
20260506140357 67 200 5.2 10.4 0.00 0.90 0.90 75 1008.0
20260506140206 67 195 6.1 10.4 0.00 0.90 0.90 74 1008.0
20260506135959 67 197 4.3 10.4 0.00 0.90 0.90 74 1008.0
20260506135801 67 183 4.3 10.4 0.00 0.90 0.90 74 1008.3
20260506135557 67 230 3.5 10.4 0.00 0.90 0.90 73 1008.3
20260506135359 67 200 6.1 10.4 0.00 0.90 0.90 72 1008.4
20260506135159 67 133 4.3 10.4 0.00 0.90 0.90 73 1008.4
20260506134954 67 227 4.3 9.6 0.00 0.90 0.90 73 1008.4
20260506134751 67 197 3.5 13.0 0.00 0.90 0.90 73 1008.4
20260506134548 67 171 3.5 14.8 0.00 0.90 0.90 73 1008.4
20260506134350 67 206 4.3 14.8 0.00 0.90 0.90 72 1008.3
20260506134159 67 227 5.2 14.8 0.00 0.90 0.90 72 1008.3
20260506133947 67 228 6.1 14.8 0.00 0.90 0.90 73 1008.5
20260506133748 67 171 6.1 14.8 0.00 0.90 0.90 75 1008.4
20260506133546 66 200 7.0 12.2 0.00 0.90 0.90 76 1008.4
20260506133346 66 176 5.2 11.3 0.00 0.90 0.90 77 1008.4
20260506133146 66 197 5.2 12.2 0.00 0.90 0.90 77 1008.5
20260506132947 66 168 4.3 12.2 0.00 0.90 0.90 78 1008.5
20260506132744 65 200 5.2 12.2 0.00 0.90 0.90 78 1008.6
20260506132544 65 180 5.2 12.2 0.00 0.90 0.90 78 1008.7
20260506132343 65 162 5.2 12.2 0.00 0.90 0.90 78 1008.7
20260506132143 65 166 1.7 7.8 0.00 0.90 0.90 80 1008.7
20260506131940 65 192 2.6 7.8 0.00 0.90 0.90 80 1008.8
20260506131740 65 135 2.6 6.1 0.00 0.90 0.90 81 1008.6
20260506131539 65 254 3.5 6.1 0.00 0.90 0.90 82 1008.7
20260506131338 65 86 1.7 7.8 0.00 0.90 0.90 82 1008.6
20260506131145 65 118 2.6 8.7 0.00 0.90 0.90 83 1008.7
20260506130937 65 231 1.7 8.7 0.01 0.90 0.90 84 1008.7
20260506130743 65 216 1.7 8.7 0.01 0.90 0.90 84 1008.9
20260506130539 65 193 3.5 8.7 0.01 0.90 0.90 84 1008.8
20260506130332 65 224 3.5 11.3 0.01 0.90 0.90 84 1009.1
20260506130136 65 199 2.6 11.3 0.01 0.90 0.90 84 1009.0
20260506125930 65 179 3.5 11.3 0.01 0.89 0.90 85 1009.1
20260506125732 65 230 1.7 11.3 0.01 0.89 0.90 85 1009.1
20260506125528 65 180 3.5 11.3 0.01 0.89 0.90 85 1008.9
20260506125132 65 192 4.3 8.7 0.01 0.89 0.90 85 1009.0
20260506124928 65 175 2.6 8.7 0.01 0.89 0.90 86 1009.0
20260506124725 65 227 3.5 8.7 0.01 0.89 0.90 87 1009.0
20260506124528 65 206 1.7 4.3 0.01 0.89 0.90 87 1009.1
20260506124323 65 207 1.7 6.1 0.02 0.89 0.90 87 1008.9
20260506124136 65 172 1.7 6.1 0.02 0.89 0.90 87 1008.9
20260506123921 65 161 1.7 8.7 0.02 0.89 0.90 86 1008.9
20260506123720 65 212 1.7 8.7 0.02 0.89 0.90 86 1009.0
20260506123521 65 203 3.5 8.7 0.02 0.89 0.90 86 1009.0
20260506123319 65 217 1.7 8.7 0.02 0.89 0.90 86 1009.2
20260506123123 65 217 4.3 8.7 0.02 0.89 0.90 86 1009.1
20260506122916 65 193 4.3 8.7 0.02 0.89 0.90 87 1009.1
20260506122713 65 182 1.7 5.2 0.02 0.89 0.90 88 1008.9
20260506122519 65 234 1.7 5.2 0.02 0.89 0.90 88 1008.9
20260506122312 65 195 1.7 4.3 0.02 0.89 0.90 88 1008.8
20260506122113 65 193 1.7 4.3 0.02 0.89 0.90 89 1008.8
20260506121911 65 127 0.9 4.3 0.02 0.89 0.90 89 1008.7
20260506121712 65 110 0.0 4.3 0.02 0.89 0.90 89 1008.7
20260506121521 65 103 0.9 4.3 0.02 0.89 0.90 89 1008.8
20260506121312 65 168 1.7 3.5 0.02 0.89 0.90 89 1008.9
20260506121133 65 282 0.9 4.3 0.02 0.89 0.90 89 1008.8
20260506120911 65 282 0.9 4.3 0.01 0.89 0.89 89 1008.9
20260506120712 65 283 0.9 7.8 0.01 0.89 0.89 89 1009.1
20260506120520 65 283 0.0 8.7 0.01 0.89 0.89 89 1009.1
20260506120308 65 283 1.7 8.7 0.01 0.89 0.89 88 1009.0
20260506120112 65 223 0.9 8.7 0.01 0.89 0.89 88 1009.1
20260506115907 65 298 4.3 8.7 0.01 0.88 0.89 88 1009.0
20260506115708 65 282 5.2 10.4 0.01 0.88 0.89 88 1009.0
20260506115515 66 282 2.6 11.3 0.01 0.88 0.89 88 1009.1
20260506115308 66 195 2.6 13.9 0.01 0.88 0.89 88 1009.0
20260506115113 66 241 4.3 13.9 0.01 0.88 0.89 87 1009.1
20260506114912 66 285 6.1 13.9 0.01 0.88 0.89 86 1008.9
20260506114711 66 286 7.8 13.9 0.01 0.88 0.89 84 1009.0
20260506114519 66 213 7.8 13.9 0.01 0.88 0.89 80 1009.0
20260506114311 67 231 7.0 13.9 0.00 0.88 0.88 79 1008.9
20260506114126 67 180 6.1 13.9 0.00 0.88 0.88 78 1008.8
20260506113911 67 189 7.8 13.9 0.00 0.88 0.88 77 1008.8
20260506113713 67 220 6.1 13.0 0.00 0.88 0.88 77 1008.7
20260506113519 67 233 7.0 13.0 0.00 0.88 0.88 76 1008.7
20260506113319 67 221 7.8 13.0 0.00 0.88 0.88 75 1008.7
20260506113116 67 252 7.0 11.3 0.00 0.88 0.88 76 1008.7
20260506112909 67 203 6.1 10.4 0.00 0.88 0.88 76 1008.7
20260506112712 67 216 6.1 10.4 0.00 0.88 0.88 76 1008.6
20260506112520 67 192 3.5 10.4 0.00 0.88 0.88 76 1008.6
20260506112308 67 235 4.3 10.4 0.00 0.88 0.88 76 1008.8
20260506112111 67 196 5.2 10.4 0.00 0.88 0.88 76 1008.7
20260506111909 68 247 4.3 9.6 0.00 0.88 0.88 76 1008.7
20260506111708 68 195 4.3 11.3 0.00 0.88 0.88 75 1008.6
20260506111516 68 206 3.5 11.3 0.00 0.88 0.88 75 1008.7
20260506111310 68 186 2.6 11.3 0.00 0.88 0.88 75 1008.7
20260506111122 67 193 3.5 11.3 0.00 0.88 0.88 75 1008.5
20260506110908 67 192 6.1 11.3 0.00 0.88 0.88 74 1008.5
20260506110708 68 165 3.5 11.3 0.00 0.88 0.88 75 1008.6
20260506110517 67 159 3.5 12.2 0.00 0.88 0.88 75 1008.6
20260506110309 67 152 5.2 12.2 0.00 0.88 0.88 75 1008.6
20260506110113 68 149 3.5 12.2 0.00 0.88 0.88 75 1008.6
20260506105908 67 278 2.6 12.2 0.00 0.88 0.88 75 1008.5
20260506105709 67 250 4.3 12.2 0.00 0.88 0.88 76 1008.6
20260506105517 67 266 3.5 10.4 0.00 0.88 0.88 76 1008.6
20260506105313 67 124 5.2 13.9 0.00 0.88 0.88 76 1008.7
20260506105112 67 125 4.3 13.9 0.00 0.88 0.88 76 1008.7
20260506104909 67 155 5.2 13.9 0.00 0.88 0.88 76 1008.7
20260506104710 67 252 3.5 13.9 0.00 0.88 0.88 77 1008.7
20260506104524 67 196 7.0 13.9 0.00 0.88 0.88 77 1008.9
20260506104310 67 217 7.8 13.9 0.00 0.88 0.88 78 1008.9
20260506104111 67 226 6.1 10.4 0.00 0.88 0.88 82 1008.8
20260506103910 67 183 2.6 5.2 0.00 0.88 0.88 85 1008.8
20260506103710 66 155 0.9 5.2 0.00 0.88 0.88 86 1008.9
20260506103528 66 124 0.9 5.2 0.00 0.88 0.88 86 1008.8
20260506103310 66 125 2.6 5.2 0.00 0.88 0.88 86 1008.8
20260506103112 66 124 1.7 5.2 0.00 0.88 0.88 86 1008.8
20260506102909 66 59 1.7 4.3 0.00 0.88 0.88 87 1008.8
20260506102710 66 66 0.9 4.3 0.00 0.88 0.88 88 1008.7
20260506102517 66 66 0.0 7.8 0.00 0.88 0.88 88 1008.8
20260506102309 66 66 0.9 7.8 0.00 0.88 0.88 88 1008.8
20260506102112 66 63 1.7 7.8 0.00 0.88 0.88 88 1009.0
20260506101911 66 110 2.6 7.8 0.00 0.88 0.88 88 1008.9
20260506101711 66 134 4.3 10.4 0.00 0.88 0.88 88 1008.9
20260506101523 65 118 4.3 10.4 0.00 0.88 0.88 88 1008.8
20260506101317 65 120 2.6 10.4 0.00 0.88 0.88 89 1009.0
20260506101111 65 176 4.3 10.4 0.00 0.88 0.88 89 1008.9
20260506100910 65 51 5.2 10.4 0.00 0.88 0.88 89 1008.9
20260506100709 65 96 3.5 8.7 0.00 0.88 0.88 90 1009.0
20260506100518 65 94 3.5 7.8 0.00 0.88 0.88 90 1008.9
20260506100312 65 135 4.3 7.8 0.00 0.88 0.88 90 1009.0
20260506100113 64 103 1.7 6.1 0.00 0.89 0.88 92 1009.0
20260506095911 64 131 2.6 8.7 0.00 0.89 0.88 90 1009.0
20260506095713 64 133 1.7 8.7 0.00 0.90 0.88 91 1009.0
20260506095528 64 128 2.6 8.7 0.00 0.91 0.88 91 1009.0
20260506095310 63 138 2.6 11.3 0.00 0.91 0.88 91 1009.1
20260506095108 63 118 3.5 11.3 0.00 0.91 0.88 91 1009.1
20260506094910 63 80 2.6 11.3 0.00 0.92 0.88 91 1009.1
20260506094709 63 121 3.5 11.3 0.00 0.92 0.88 91 1009.0
20260506094522 63 87 4.3 11.3 0.00 0.93 0.88 91 1009.1
20260506094308 63 103 4.3 8.7 0.00 0.93 0.88 91 1009.0
20260506094109 62 127 4.3 8.7 0.00 0.93 0.88 91 1008.9
20260506093908 62 106 1.7 7.8 0.00 0.94 0.88 91 1009.0
20260506093708 62 106 2.6 7.8 0.01 0.94 0.88 91 1009.0
20260506093519 62 94 4.3 7.8 0.01 0.94 0.88 91 1008.9
20260506093312 62 117 3.5 6.1 0.01 0.94 0.88 91 1008.9
20260506093110 62 39 2.6 6.1 0.02 0.94 0.88 91 1008.9
20260506092907 62 63 2.6 5.2 0.02 0.94 0.88 91 1009.0
20260506092708 62 114 1.7 5.2 0.02 0.94 0.88 91 1009.1
20260506092519 62 123 1.7 5.2 0.02 0.94 0.88 91 1009.0
20260506092310 61 59 2.6 5.2 0.02 0.94 0.88 91 1009.1
20260506092108 61 47 1.7 6.1 0.02 0.95 0.88 91 1009.1
20260506091908 61 59 1.7 6.1 0.02 0.95 0.88 91 1009.0
20260506091708 61 52 2.6 6.1 0.02 0.95 0.88 91 1009.0
20260506091517 61 89 1.7 6.1 0.02 0.95 0.88 91 1009.0
20260506091304 61 90 2.6 6.1 0.02 0.95 0.88 91 1009.0
20260506091105 61 102 2.6 5.2 0.03 0.96 0.88 91 1009.0
20260506090904 61 124 1.7 5.2 0.03 0.96 0.88 91 1009.1
20260506090703 61 125 1.7 7.8 0.03 0.96 0.88 91 1009.1
20260506090514 60 125 2.6 7.8 0.03 0.96 0.88 91 1009.0
20260506090301 60 113 1.7 7.8 0.03 0.96 0.88 91 1009.0
20260506085903 60 96 2.6 8.7 0.03 0.94 0.88 91 1009.0
20260506085701 60 123 3.5 8.7 0.03 0.94 0.88 91 1009.0
20260506085501 60 144 2.6 8.7 0.03 0.94 0.88 91 1009.0
20260506085305 60 61 4.3 8.7 0.03 0.94 0.88 91 1009.1
20260506085102 60 32 3.5 6.1 0.03 0.94 0.88 91 1009.1
20260506084907 60 51 1.7 4.3 0.04 0.94 0.88 91 1009.1
20260506084705 60 94 1.7 4.3 0.04 0.94 0.88 91 1009.1
20260506084509 60 116 2.6 4.3 0.04 0.94 0.88 91 1009.1
20260506084301 60 106 3.5 4.3 0.04 0.94 0.88 91 1009.2
20260506084053 60 58 0.9 2.6 0.04 0.94 0.88 91 1009.3
20260506083851 59 51 0.9 2.6 0.04 0.94 0.88 91 1009.2
20260506083651 59 76 1.7 4.3 0.03 0.94 0.87 91 1009.3
20260506083450 59 75 1.7 6.1 0.04 0.95 0.87 91 1009.3
20260506083250 59 116 0.9 6.1 0.03 0.95 0.87 91 1009.3
20260506083049 59 116 0.9 6.1 0.03 0.95 0.87 91 1009.3
20260506082852 59 116 1.7 6.1 0.04 0.95 0.87 91 1009.3
20260506082649 59 149 2.6 6.1 0.04 0.95 0.87 91 1009.2
20260506082449 59 127 2.6 6.1 0.05 0.95 0.87 91 1009.2
20260506082248 59 117 1.7 7.8 0.05 0.95 0.86 91 1009.2
20260506082043 59 85 2.6 7.8 0.04 0.95 0.86 91 1009.3
20260506081849 59 79 2.6 7.8 0.04 0.95 0.86 91 1009.2
20260506081642 59 109 3.5 7.8 0.05 0.95 0.86 91 1009.2
20260506081438 59 117 4.3 7.8 0.05 0.95 0.86 91 1009.2
20260506081238 59 111 1.7 3.5 0.05 0.95 0.85 91 1009.1
20260506081038 59 111 1.7 3.5 0.05 0.95 0.85 91 1009.2
20260506080834 59 111 1.7 2.6 0.06 0.95 0.85 91 1009.1
20260506080634 59 111 0.9 2.6 0.06 0.95 0.85 91 1009.1
20260506080433 59 111 0.9 2.6 0.06 0.95 0.85 91 1009.1
20260506080233 59 111 0.0 3.5 0.06 0.95 0.85 91 1009.0
20260506080127 59 111 1.7 3.5 0.06 0.95 0.85 91 1009.1
20260506073419 59 130 0.9 3.5 0.06 0.90 0.83 91 1009.3
20260506073215 59 130 0.9 3.5 0.06 0.90 0.83 91 1009.3
20260506073022 59 130 0.0 3.5 0.06 0.90 0.83 91 1009.2
20260506072811 59 130 0.9 3.5 0.05 0.90 0.83 91 1009.2
20260506072611 59 130 0.9 5.2 0.06 0.90 0.83 91 1009.2
20260506072413 59 133 1.7 7.8 0.05 0.90 0.82 91 1009.2
20260506072212 59 133 2.6 7.8 0.06 0.90 0.82 91 1009.2
20260506072018 59 106 1.7 7.8 0.06 0.90 0.82 91 1009.3
20260506071808 59 125 2.6 7.8 0.06 0.90 0.81 91 1009.2
20260506071610 58 168 3.5 7.8 0.06 0.90 0.81 91 1009.3
20260506071409 58 106 3.5 7.8 0.06 0.90 0.80 91 1009.3
20260506071213 58 96 3.5 7.8 0.06 0.90 0.80 91 1009.3
20260506071022 58 169 2.6 7.8 0.06 0.90 0.80 91 1009.3
20260506070810 58 121 3.5 8.7 0.06 0.91 0.80 91 1009.3
20260506070612 58 123 3.5 9.6 0.07 0.91 0.80 91 1009.3
20260506070409 58 140 4.3 9.6 0.07 0.91 0.80 91 1009.4
20260506070207 58 120 3.5 9.6 0.08 0.91 0.80 91 1009.4
20260506062352 58 138 2.6 4.3 0.13 0.90 0.76 91 1009.6
20260506062149 58 145 1.7 4.3 0.12 0.91 0.76 91 1009.6
20260506061948 58 130 1.7 4.3 0.11 0.91 0.76 91 1009.7
20260506061731 58 114 0.9 2.6 0.11 0.93 0.75 91 1009.6
20260506061531 58 114 0.0 2.6 0.11 0.94 0.74 91 1009.6
20260506061331 58 114 0.0 2.6 0.10 0.94 0.74 91 1009.5
20260506061130 58 114 0.9 2.6 0.10 0.96 0.73 91 1009.5
20260506060930 58 114 0.9 2.6 0.10 0.97 0.73 91 1009.6
20260506060730 58 114 0.0 2.6 0.10 0.98 0.73 91 1009.6
20260506060531 58 114 0.0 2.6 0.09 0.99 0.72 91 1009.7
20260506060336 58 114 0.9 2.6 0.09 1.01 0.72 91 1009.6
20260506060126 58 114 0.0 1.7 0.09 1.02 0.72 91 1009.6
20260506051313 58 138 3.5 8.7 0.14 0.98 0.64 91 1009.5
20260506051109 58 124 3.5 8.7 0.15 0.98 0.63 91 1009.6
20260506050908 58 99 3.5 8.7 0.16 0.98 0.63 91 1009.8
20260506050718 58 103 4.3 8.7 0.17 0.98 0.63 91 1009.7
20260506050519 58 121 5.2 9.6 0.18 0.98 0.63 91 1009.7
20260506050320 58 118 5.2 9.6 0.19 0.98 0.63 91 1009.7
20260506050116 58 125 5.2 9.6 0.20 0.98 0.63 91 1009.8
20260506045107 58 138 4.3 6.1 0.21 0.77 0.61 91 1010.0
20260506044906 58 106 3.5 5.2 0.22 0.77 0.61 91 1010.0
20260506044705 58 125 1.7 5.2 0.22 0.77 0.61 91 1010.0
20260506044516 58 133 2.6 5.2 0.23 0.77 0.61 91 1010.0
20260506044306 58 135 2.6 5.2 0.22 0.77 0.61 91 1010.0
20260506044103 58 99 2.6 5.2 0.22 0.77 0.60 91 1009.9
20260506043901 58 118 3.5 5.2 0.22 0.77 0.60 91 1009.9
20260506043702 58 90 0.9 4.3 0.22 0.77 0.60 91 1009.9
20260506043501 58 93 0.0 4.3 0.22 0.77 0.60 91 1009.8
20260506043302 58 93 0.0 4.3 0.21 0.77 0.59 91 1009.7
20260506043101 58 93 1.7 4.3 0.21 0.77 0.58 91 1009.4
20260506042903 58 42 3.5 4.3 0.20 0.77 0.58 91 1009.4
20260506042700 58 85 2.6 4.3 0.20 0.77 0.57 91 1009.6
20260506042457 58 45 2.6 3.5 0.19 0.77 0.56 91 1009.7
20260506042259 58 78 1.7 5.2 0.17 0.77 0.55 91 1009.9
20260506042057 58 137 0.0 5.2 0.17 0.77 0.54 90 1010.0
20260506041856 58 179 0.9 10.4 0.16 0.77 0.53 90 1010.1
20260506041649 58 179 1.7 10.4 0.14 0.77 0.51 90 1010.1
20260506041448 58 180 2.6 10.4 0.13 0.77 0.50 91 1010.2
20260506041249 58 252 2.6 11.3 0.11 0.77 0.49 91 1010.3
20260506041047 58 162 5.2 11.3 0.10 0.77 0.48 91 1010.3
20260506040843 58 235 4.3 11.3 0.09 0.77 0.46 91 1010.2
20260506040650 58 196 4.3 11.3 0.08 0.77 0.46 91 1010.2
20260506040447 58 244 5.2 11.3 0.07 0.77 0.45 91 1010.1
20260506040247 58 157 4.3 11.3 0.06 0.77 0.44 91 1010.1
20260506035841 58 228 3.5 9.6 0.05 0.72 0.42 91 1010.0
20260506035645 58 128 2.6 9.6 0.04 0.72 0.42 91 1010.0
20260506035441 58 197 3.5 10.4 0.03 0.72 0.41 91 1009.9
20260506035242 58 147 1.7 10.4 0.03 0.72 0.40 91 1009.9
20260506035035 58 258 2.6 10.4 0.03 0.72 0.39 91 1009.9
20260506034831 58 165 2.6 10.4 0.02 0.72 0.39 91 1010.0
20260506034635 58 134 3.5 10.4 0.02 0.72 0.39 91 1009.9
20260506034429 58 135 3.5 8.7 0.02 0.72 0.39 91 1010.0
20260506034227 58 144 2.6 10.4 0.01 0.72 0.38 91 1009.9
20260506034031 58 234 3.5 10.4 0.01 0.72 0.38 91 1009.9
20260506033827 58 128 3.5 10.4 0.02 0.72 0.38 91 1009.9
20260506033632 58 221 3.5 10.4 0.02 0.72 0.38 91 1009.9
20260506033430 58 103 3.5 10.4 0.03 0.72 0.38 91 1009.8
20260506033228 58 148 3.5 8.7 0.03 0.72 0.38 91 1009.8
20260506033026 58 166 2.6 8.7 0.03 0.72 0.38 91 1009.8
20260506032814 58 289 1.7 8.7 0.03 0.72 0.38 91 1009.7
20260506032611 58 140 3.5 8.7 0.04 0.72 0.38 91 1009.6
20260506032413 58 183 3.5 8.7 0.04 0.72 0.38 91 1009.8
20260506032210 58 188 4.3 8.7 0.05 0.72 0.38 91 1009.7
20260506032020 58 217 3.5 8.7 0.06 0.72 0.38 91 1009.8
20260506031811 58 148 3.5 8.7 0.06 0.72 0.38 91 1009.8
20260506031616 58 193 3.5 8.7 0.06 0.72 0.38 91 1009.7
20260506031410 58 206 2.6 8.7 0.06 0.72 0.38 91 1009.7
20260506031208 59 125 2.6 6.1 0.07 0.72 0.38 91 1009.7
20260506031018 59 148 1.7 5.2 0.07 0.72 0.38 91 1009.7
20260506030809 59 142 1.7 5.2 0.08 0.72 0.38 91 1009.7
20260506030617 59 223 2.6 5.2 0.08 0.72 0.38 91 1009.8
20260506030411 59 107 1.7 5.2 0.08 0.72 0.38 91 1009.8
20260506030209 59 120 1.7 5.2 0.08 0.72 0.38 91 1009.7
20260506030040 59 124 1.7 3.5 0.08 0.65 0.38 91 1009.8
20260506025809 59 124 1.7 3.5 0.08 0.65 0.38 90 1009.8
20260506025614 59 124 1.7 2.6 0.08 0.65 0.38 90 1009.9
20260506025410 59 124 1.7 2.6 0.08 0.65 0.38 90 1010.0
20260506025206 59 124 0.0 1.7 0.07 0.65 0.37 91 1010.0
20260506025012 59 124 0.0 1.7 0.08 0.65 0.37 91 1010.1
20260506024803 59 124 0.9 1.7 0.08 0.65 0.37 91 1010.0
20260506024605 59 124 0.0 2.6 0.08 0.65 0.37 91 1010.1
20260506024402 59 124 0.0 2.6 0.09 0.65 0.37 91 1010.2
20260506024202 59 124 0.9 2.6 0.09 0.65 0.37 91 1010.1
20260506024013 59 124 0.0 2.6 0.09 0.65 0.36 90 1010.1
20260506023803 59 124 0.9 3.5 0.09 0.65 0.35 90 1010.3
20260506023601 59 124 0.0 3.5 0.09 0.65 0.35 90 1010.3
20260506023356 59 124 0.9 3.5 0.08 0.65 0.35 90 1010.2
20260506023134 59 125 0.9 3.5 0.09 0.65 0.35 91 1010.3
20260506022933 59 124 0.9 3.5 0.09 0.65 0.35 91 1010.2
20260506022732 59 124 0.9 2.6 0.09 0.65 0.34 91 1010.1
20260506022532 59 124 1.7 2.6 0.09 0.65 0.34 91 1010.2
20260506022332 59 124 0.9 1.7 0.10 0.65 0.33 91 1010.2
20260506022131 59 124 0.0 1.7 0.11 0.65 0.33 91 1010.3
20260506021938 59 124 0.0 1.7 0.11 0.65 0.32 91 1010.3
20260506021729 59 124 0.0 1.7 0.12 0.65 0.32 91 1010.5
20260506021530 59 124 0.9 2.6 0.11 0.65 0.31 91 1010.7
20260506021329 60 124 0.0 2.6 0.12 0.65 0.31 91 1010.7
20260506021130 60 124 0.0 2.6 0.13 0.65 0.31 91 1010.7
20260506020931 60 124 0.9 2.6 0.12 0.65 0.30 90 1010.8
20260506020720 60 124 0.9 2.6 0.13 0.65 0.30 90 1010.8
20260506020522 60 124 0.9 5.2 0.13 0.65 0.30 90 1010.8
20260506020320 60 124 0.9 5.2 0.13 0.65 0.30 90 1010.8
20260506020119 60 124 0.9 5.2 0.13 0.65 0.30 90 1010.7
20260506015919 60 124 1.7 5.2 0.14 0.51 0.30 91 1010.7
20260506015718 60 124 2.6 5.2 0.15 0.51 0.30 91 1010.7
20260506015523 60 56 0.9 3.5 0.16 0.51 0.30 91 1010.6
20260506015317 60 56 0.0 4.3 0.17 0.51 0.30 91 1010.4
20260506015118 60 56 0.0 4.3 0.17 0.51 0.29 91 1010.4
20260506014929 60 56 0.9 4.3 0.18 0.51 0.29 91 1010.4
20260506014722 60 55 1.7 4.3 0.20 0.51 0.29 91 1010.5
20260506014525 59 55 2.6 4.3 0.20 0.51 0.28 91 1010.5
20260506014316 59 45 3.5 4.3 0.20 0.51 0.28 91 1010.6
20260506014115 59 30 1.7 4.3 0.20 0.51 0.28 91 1010.8
20260506013918 59 28 2.6 4.3 0.20 0.51 0.28 91 1010.9
20260506013713 59 7 1.7 2.6 0.21 0.51 0.27 91 1011.0
20260506013523 59 7 0.9 2.6 0.21 0.51 0.27 91 1011.0
20260506013310 59 7 0.9 2.6 0.22 0.51 0.27 91 1011.1
20260506013114 59 7 0.9 2.6 0.21 0.51 0.26 91 1011.1
20260506012915 59 7 0.9 2.6 0.21 0.51 0.25 91 1011.1
20260506012712 59 7 0.9 3.5 0.21 0.51 0.24 91 1011.1
20260506012526 59 7 0.9 3.5 0.20 0.51 0.24 91 1011.2
20260506012308 59 7 0.0 3.5 0.20 0.51 0.23 91 1011.3
20260506012108 59 7 0.0 3.5 0.19 0.51 0.22 91 1011.3
20260506011926 59 7 2.6 3.5 0.18 0.51 0.20 91 1011.2
20260506011710 59 4 1.7 3.5 0.17 0.51 0.20 91 1011.1
20260506011522 60 4 1.7 2.6 0.17 0.51 0.20 91 1011.2
20260506011309 60 4 1.7 3.5 0.16 0.51 0.19 91 1011.3
20260506011109 60 4 0.0 3.5 0.15 0.51 0.18 91 1011.4
20260506010914 60 4 0.9 3.5 0.15 0.51 0.18 91 1011.4
20260506010709 60 4 1.7 3.5 0.14 0.51 0.17 91 1011.4
20260506010522 60 4 2.6 3.5 0.14 0.51 0.17 91 1011.5
20260506010308 60 4 1.7 3.5 0.14 0.51 0.17 91 1011.5
20260506010115 60 4 1.7 3.5 0.14 0.51 0.17 91 1011.6
20260506005917 60 4 0.9 3.5 0.13 0.38 0.16 91 1011.5
20260506005711 60 4 0.0 3.5 0.12 0.38 0.14 91 1011.6
20260506005525 60 4 0.0 3.5 0.11 0.38 0.13 91 1011.5
20260506005308 60 4 0.0 3.5 0.10 0.38 0.13 91 1011.5
20260506005109 60 4 2.6 3.5 0.09 0.38 0.12 91 1011.4
20260506004925 60 4 1.7 3.5 0.09 0.38 0.10 91 1011.4
20260506004709 60 4 1.7 3.5 0.07 0.38 0.09 91 1011.4
20260506004515 60 4 0.9 3.5 0.07 0.38 0.09 91 1011.3
20260506004309 60 4 0.9 3.5 0.06 0.38 0.08 91 1011.4
20260506004108 60 4 1.7 3.5 0.06 0.38 0.08 91 1011.3
20260506003914 60 4 1.7 2.6 0.06 0.38 0.06 91 1011.2
20260506003710 60 4 1.7 2.6 0.06 0.38 0.06 91 1011.1
20260506003520 60 4 0.9 2.6 0.05 0.38 0.06 91 1011.1
20260506003309 60 4 1.7 2.6 0.04 0.38 0.05 91 1011.0
20260506003110 60 4 0.9 2.6 0.04 0.38 0.05 91 1011.0
20260506002912 60 4 0.9 1.7 0.04 0.38 0.04 91 1010.9
20260506002707 60 4 0.9 1.7 0.04 0.38 0.04 91 1011.0
20260506002515 60 4 0.9 3.5 0.04 0.38 0.04 91 1011.0
20260506002309 60 4 0.0 3.5 0.03 0.38 0.03 91 1011.0
20260506002117 60 4 0.0 3.5 0.03 0.38 0.03 91 1010.9
20260506001912 60 4 1.7 3.5 0.03 0.38 0.03 91 1010.8
20260506001714 60 4 1.7 3.5 0.03 0.38 0.03 91 1010.9
20260506001515 60 3 0.9 3.5 0.03 0.38 0.03 91 1010.8
20260506001108 60 3 0.9 3.5 0.03 0.38 0.03 91 1010.9
20260506000905 60 3 0.9 3.5 0.03 0.38 0.03 91 1010.9
20260506000704 60 3 1.7 3.5 0.03 0.38 0.03 91 1010.9
20260506000501 60 0 1.7 3.5 0.03 0.38 0.03 91 1011.0
20260506000302 60 0 1.7 3.5 0.03 0.38 0.03 91 1011.0
20260505235900 60 0 1.7 3.5 0.03 0.35 0.03 91 1011.1
20260505235701 60 0 2.6 3.5 0.03 0.35 0.03 91 1011.3
20260505235459 60 0 0.9 3.5 0.03 0.35 0.03 91 1011.4
20260505235305 60 0 1.7 3.5 0.03 0.35 0.03 91 1011.4
20260505235103 60 0 0.9 1.7 0.03 0.35 0.03 91 1011.5
20260505234858 60 0 0.0 2.6 0.02 0.35 0.02 91 1011.5
20260505234657 60 0 0.0 2.6 0.02 0.35 0.02 91 1011.6
20260505234457 60 0 0.0 2.6 0.02 0.35 0.02 91 1011.6
20260505234256 60 0 0.0 2.6 0.02 0.35 0.02 91 1011.5
20260505234059 60 0 1.7 2.6 0.02 0.35 0.01 91 1011.5
20260505233856 60 0 0.9 2.6 0.01 0.35 0.01 91 1011.6
20260505233657 60 0 0.0 1.7 0.01 0.35 0.01 91 1011.6
20260505233456 60 0 0.0 1.7 0.01 0.35 0.01 90 1011.6
20260505233300 60 0 0.9 2.6 0.01 0.35 0.01 90 1011.6
20260505233056 60 0 0.0 2.6 0.01 0.35 0.00 90 1011.5
20260505232854 60 0 0.0 2.6 0.00 0.35 0.00 90 1011.5
20260505232650 60 0 0.9 2.6 0.00 0.35 0.00 90 1011.5
20260505232453 60 0 1.7 2.6 0.00 0.35 0.00 90 1011.5
20260505232251 60 0 0.9 1.7 0.00 0.35 0.00 90 1011.5
20260505232050 60 0 0.0 1.7 0.00 0.35 0.00 90 1011.5
20260505231849 60 0 0.0 1.7 0.00 0.35 0.00 90 1011.6
20260505231650 60 0 0.0 1.7 0.00 0.35 0.00 90 1011.5
20260505231447 60 0 0.9 1.7 0.00 0.35 0.00 90 1011.6
20260505231246 60 0 0.9 1.7 0.00 0.35 0.00 90 1011.5
20260505231045 60 0 0.0 0.9 0.00 0.35 0.00 90 1011.6
20260505230845 60 0 0.0 0.9 0.00 0.35 0.00 90 1011.6
20260505230644 60 0 0.0 0.9 0.00 0.35 0.00 90 1011.6
20260505230444 60 0 0.0 1.7 0.00 0.35 0.00 90 1011.6
20260505230243 60 0 0.0 1.7 0.00 0.35 0.00 90 1011.6
20260505230046 60 0 0.0 1.7 0.00 0.35 0.00 90 1011.5
20260505225842 60 0 0.0 1.7 0.00 0.35 0.00 90 1011.5
20260505225640 60 0 0.9 1.7 0.00 0.35 0.00 90 1011.6
20260505225439 60 0 0.9 1.7 0.00 0.35 0.00 90 1011.6
20260505225238 60 0 0.0 1.7 0.00 0.35 0.00 90 1011.7
20260505225038 60 0 0.0 1.7 0.00 0.35 0.00 90 1011.7
20260505224833 60 0 0.0 2.6 0.00 0.35 0.00 90 1011.7
20260505224634 60 0 0.9 2.6 0.00 0.35 0.00 90 1011.6
20260505224433 60 0 0.0 2.6 0.00 0.35 0.00 90 1011.7
20260505224231 60 0 0.0 2.6 0.00 0.35 0.00 90 1011.7
20260505224034 60 0 0.9 2.6 0.00 0.35 0.00 90 1011.7
20260505223834 60 0 0.9 1.7 0.00 0.35 0.00 90 1011.8
20260505223635 60 0 0.0 1.7 0.00 0.35 0.00 90 1011.8
20260505223432 60 0 0.0 0.9 0.00 0.35 0.00 90 1011.8
20260505223231 60 0 0.0 0.9 0.00 0.35 0.00 90 1011.8
20260505223033 60 0 0.0 0.9 0.00 0.35 0.00 90 1011.8
20260505222829 60 0 0.0 0.9 0.00 0.35 0.00 90 1011.8
20260505222629 60 0 0.0 0.9 0.00 0.35 0.00 90 1011.8
20260505222428 60 0 0.9 0.9 0.00 0.35 0.00 90 1011.8
20260505222227 60 0 0.0 0.9 0.00 0.35 0.00 90 1012.0
20260505222028 60 0 0.0 0.9 0.00 0.35 0.00 90 1012.0
20260505221826 60 0 0.0 0.9 0.00 0.35 0.00 90 1012.0
20260505221629 60 0 0.0 0.9 0.00 0.35 0.00 90 1012.0
20260505221425 60 0 0.0 0.9 0.00 0.35 0.00 90 1012.1
20260505221225 60 0 0.0 0.9 0.00 0.35 0.00 90 1012.1
20260505221029 60 0 0.0 1.7 0.00 0.35 0.00 90 1012.2
20260505220823 60 0 0.0 1.7 0.00 0.35 0.00 90 1012.1
20260505220627 60 0 0.0 1.7 0.00 0.35 0.00 90 1012.1
20260505220423 60 0 0.0 1.7 0.00 0.35 0.00 90 1012.0
20260505220222 60 0 0.9 1.7 0.00 0.35 0.00 90 1012.0
20260505220049 60 0 0.9 1.7 0.00 0.35 0.00 90 1012.0
20260505215828 60 0 0.0 1.7 0.00 0.35 0.35 90 1012.1
20260505215618 60 0 0.0 1.7 0.00 0.35 0.35 90 1012.2
20260505215418 60 0 0.9 1.7 0.00 0.35 0.35 90 1012.2
20260505215221 60 0 0.9 1.7 0.00 0.35 0.35 90 1012.2
20260505215035 60 0 0.0 1.7 0.00 0.35 0.35 90 1012.3
20260505214829 60 0 0.9 1.7 0.00 0.35 0.35 90 1012.3
20260505214618 60 0 0.9 1.7 0.00 0.35 0.35 90 1012.3
20260505214418 60 0 0.9 1.7 0.00 0.35 0.35 90 1012.3
20260505214218 60 0 0.0 2.6 0.00 0.35 0.35 90 1012.4
20260505214029 60 0 0.9 2.6 0.00 0.35 0.35 90 1012.3
20260505213824 60 0 0.9 2.6 0.00 0.35 0.35 90 1012.4
20260505213614 60 0 0.9 2.6 0.00 0.35 0.35 90 1012.4
20260505213416 60 0 1.7 2.6 0.00 0.35 0.35 90 1012.3
20260505213214 60 0 0.9 1.7 0.00 0.35 0.35 90 1012.4
20260505213023 60 0 0.0 1.7 0.00 0.35 0.35 90 1012.4
20260505212815 60 0 0.0 3.5 0.00 0.35 0.35 90 1012.5
20260505212612 60 0 0.0 3.5 0.00 0.35 0.35 90 1012.4
20260505212414 60 0 0.9 4.3 0.00 0.35 0.35 90 1012.5
20260505212212 60 0 0.0 4.3 0.00 0.35 0.35 90 1012.6
20260505212021 60 0 1.7 4.3 0.00 0.35 0.35 89 1012.5
20260505211815 61 0 2.6 4.3 0.00 0.35 0.35 89 1012.6
20260505211607 61 0 3.5 4.3 0.00 0.35 0.35 89 1012.6
20260505211408 61 0 2.6 3.5 0.00 0.35 0.35 89 1012.4
20260505211204 61 0 3.5 3.5 0.00 0.35 0.35 89 1012.5
20260505211014 61 0 2.6 4.3 0.00 0.35 0.35 89 1012.4
20260505210803 61 0 1.7 4.3 0.00 0.35 0.35 89 1012.4
20260505210601 61 0 1.7 4.3 0.00 0.35 0.35 89 1012.4
20260505210407 61 0 2.6 4.3 0.00 0.35 0.35 89 1012.5
20260505210201 61 0 3.5 4.3 0.00 0.35 0.35 89 1012.4
20260505210030 61 0 3.5 4.3 0.00 0.35 0.35 89 1012.5
20260505205800 61 0 0.9 2.6 0.00 0.35 0.35 89 1012.5
20260505205601 61 0 0.0 1.7 0.00 0.35 0.35 89 1012.4
20260505205358 62 0 0.0 1.7 0.00 0.35 0.35 89 1012.3
20260505205158 62 0 0.0 1.7 0.00 0.35 0.35 89 1012.4
20260505204956 62 0 0.0 2.6 0.00 0.35 0.35 89 1012.3
20260505204756 62 0 0.0 2.6 0.00 0.35 0.35 89 1012.4
20260505204557 62 0 0.9 2.6 0.00 0.35 0.35 89 1012.4
20260505204354 62 0 0.0 2.6 0.00 0.35 0.35 89 1012.4
20260505204154 62 0 0.9 2.6 0.00 0.35 0.35 89 1012.4
20260505203953 62 0 1.7 3.5 0.00 0.35 0.35 89 1012.4
20260505203754 62 0 0.9 3.5 0.00 0.35 0.35 89 1012.3
20260505203553 62 0 1.7 3.5 0.00 0.35 0.35 89 1012.3
20260505203354 62 0 1.7 3.5 0.00 0.35 0.35 89 1012.3
20260505203152 62 0 1.7 3.5 0.00 0.35 0.35 89 1012.4
20260505202951 62 0 0.0 3.5 0.00 0.35 0.35 89 1012.3
20260505202751 62 0 2.6 3.5 0.00 0.35 0.35 88 1012.4
20260505202551 62 0 2.6 3.5 0.00 0.35 0.35 88 1012.4
20260505202351 62 0 1.7 5.2 0.00 0.35 0.35 88 1012.4
20260505202151 62 0 2.6 6.1 0.00 0.35 0.35 88 1012.4
20260505201949 62 0 2.6 6.1 0.00 0.35 0.35 88 1012.4
20260505201745 62 0 2.6 6.1 0.00 0.35 0.35 88 1012.4
20260505201543 62 0 3.5 6.1 0.00 0.35 0.35 88 1012.3
20260505201346 63 0 4.3 6.1 0.00 0.35 0.35 88 1012.2
20260505201141 63 0 2.6 5.2 0.00 0.35 0.35 88 1012.2
20260505200939 63 0 2.6 4.3 0.00 0.35 0.35 88 1012.2
20260505200742 63 0 2.6 4.3 0.00 0.35 0.35 88 1012.2
20260505200543 63 0 0.0 4.3 0.00 0.35 0.35 88 1012.2
20260505200342 63 0 1.7 4.3 0.00 0.35 0.35 88 1012.2
20260505200138 63 0 1.7 4.3 0.00 0.35 0.35 88 1012.2
20260505195937 63 0 3.5 4.3 0.00 0.35 0.35 88 1012.3
20260505195734 63 0 2.6 4.3 0.00 0.35 0.35 88 1012.3
20260505195534 63 0 1.7 4.3 0.00 0.35 0.35 88 1012.3
20260505195331 63 0 2.6 4.3 0.00 0.35 0.35 88 1012.3
20260505195131 64 0 2.6 4.3 0.00 0.35 0.35 89 1012.2
20260505194929 64 0 3.5 4.3 0.00 0.35 0.35 88 1012.3
20260505194729 64 0 1.7 4.3 0.00 0.35 0.35 87 1012.2
20260505194529 64 0 2.6 4.3 0.00 0.35 0.35 87 1012.2
20260505194335 64 0 1.7 3.5 0.00 0.35 0.35 87 1012.1
20260505194128 64 0 1.7 4.3 0.00 0.35 0.35 87 1012.1
20260505193928 64 0 1.7 4.3 0.00 0.35 0.35 87 1012.1
20260505193727 64 0 1.7 4.3 0.00 0.35 0.35 87 1012.0
20260505193527 64 0 1.7 4.3 0.00 0.35 0.35 87 1012.0
20260505193326 64 0 3.5 4.3 0.00 0.35 0.35 87 1011.9
20260505193126 64 0 3.5 4.3 0.00 0.35 0.35 86 1011.8
20260505192923 64 0 1.7 4.3 0.00 0.35 0.35 86 1011.9
20260505192722 64 0 1.7 4.3 0.00 0.35 0.35 86 1011.8
20260505192521 65 0 1.7 4.3 0.00 0.35 0.35 86 1011.7
20260505192320 65 0 3.5 4.3 0.00 0.35 0.35 86 1011.8
20260505192117 65 0 1.7 4.3 0.00 0.35 0.35 85 1011.8
20260505191916 65 0 1.7 4.3 0.00 0.35 0.35 85 1011.8
20260505191716 65 0 2.6 4.3 0.00 0.35 0.35 85 1011.7
20260505191525 65 0 3.5 6.1 0.00 0.35 0.35 85 1011.7
20260505191318 65 0 1.7 6.1 0.00 0.35 0.35 85 1011.8
20260505191115 65 0 0.9 6.1 0.00 0.35 0.35 84 1011.7
20260505190914 65 0 0.9 6.1 0.00 0.35 0.35 84 1011.7
20260505190710 65 0 3.5 6.1 0.00 0.35 0.35 84 1011.6
20260505190521 65 4 2.6 6.1 0.00 0.35 0.35 84 1011.7
20260505190311 65 0 1.7 2.6 0.00 0.35 0.35 84 1011.6
20260505190109 65 0 0.0 2.6 0.00 0.35 0.35 84 1011.6
20260505185903 65 0 0.9 2.6 0.00 0.35 0.35 84 1011.6